Location: Waco, TX
(31.5480°N, 97.1670°W)
Time: 22:05:08
(UTC-06:00)

ISS - Pass Details

Date: 20 February 2019
Orbit: 403 x 411 km, 51.6° (Epoch: 22 February)

Event Time Altitude Azimuth Distance (km) Brightness Sun altitude
Rises 14:42:43 0° 320° (NW) 2,323 -0.1 38.8°
Reaches altitude 10° 14:44:50 10° 326° (NNW) 1,462 -1.1 38.5°
Maximum altitude 14:48:02 48° 43° (NE) 540 -3.2 38.1°
Drops below altitude 10° 14:51:12 10° 119° (ESE) 1,459 -1.0 37.6°
Sets 14:53:19 0° 125° (SE) 2,318 0.0 37.3°
